Phoenix, AZ

04:51 MST dnia 27-maj-2017 (GMT -0700)
Phoenix Sky Harbor International

Pogoda Historia dla KPHX - maj, 2017

Change the Weather History Date:

Piątek, maj 19, 2017

  Actual Average Record
Temperature  
Temperatura średnia 75 ° F 83 ° F  
Temperatura maksymalna 87 ° F 96 ° F 110 ° F (2008)
Temperatura minimalna 62 ° F 70 ° F 48 ° F (1903)
Degree Days  
stopnio-dni grzewczych 0 0  
Month to date heating degree days 0 0  
Since 1 July heating degree days 693 934  
Cooling Degree Days 10 18  
Month to date cooling degree days 258 292  
Year to date cooling degree days 802 647  
Growing Degree Days 24 (Base 50)    
Moisture  
Punkt rosy 27 ° F    
Average Humidity 23    
Maximum Humidity 36    
Minimum Humidity 10    
Opady  
Opady 0.00 cali 0.00 cali 0.23 cali (1917)
Month to date precipitation 0.01 0.07  
Year to date precipitation 2.41 3.17  
śnieg  
śnieg 0.00 cali - - ()
Month to date snowfall 0.0  
Year to date snowfall 0.0  
Since 1 July snowfall 0.0  
Głębokość pokrywy śnieżnej 0.00 cali    
Ciśnienie na poziomie morza  
Ciśnienie na poziomie morza 29.81 cali    
Wiatr  
Prędkość wiatru 6 mph (ZdPdZd)    
Maksymalna prędkość wiatru 16 mph    
Max Gust Speed 23 mph    
Widzialność 10 mil    
Wydarzenia      
T = Trace of Precipitation, MM = Missing Value Source: NWS Daily Summary

Daily Weather History Graph

Daily Weather History Graph

Search for Another Location

Airport or City:

Trip Planner

Search our weather history database for the weather conditions in past years. The results will help you decide how hot, cold, wet, or windy it might be!

Date:

Astronomia

May. 19, 2017 Wschód Zachów
Aktualny czas 05:24 MST 19:24 MST
Zmierzch cywilny 04:57 MST 19:52 MST
Zmierzch żeglarski 04:23 MST 20:26 MST
świt/zmierzch astronomiczny 03:47 MST 21:02 MST
Księżyc 01:27 MST (5/19) 12:54 MST (5/19)
całkowite oświetlenie 14h 55m
Długość dnia
13h 59m
Ostatnia kwadra, 42% of the Moon is Illuminated
Maj 19
Ostatnia kwadra
Maj 25
Nowy
Czerwiec 1
Pierwsza kwadra
Czerwiec 9
Pełnia Księżyca
Czerwiec 17
Ostatnia kwadra

Hourly Weather History & Observations

czas (MST) Temp. Punkt rosy Wilgotność Ciśnienie Widzialność Wind Dir Prędkość wiatru prędkość w porywie Precip Wydarzenia Warunki pogodowe
12:51 AM 66.9 ° F 33.1 ° F 28% 29.79 cali 10.0 mi PdPdZd 9.2 mph - N/A   niewielkie zachmurzenie
1:51 AM 68.0 ° F 33.1 ° F 27% 29.79 cali 10.0 mi ZdPnZd 13.8 mph - N/A   pogodnie
2:51 AM 64.9 ° F 35.1 ° F 33% 29.80 cali 10.0 mi PnZd 12.7 mph - N/A   pogodnie
3:51 AM 63.0 ° F 35.1 ° F 35% 29.80 cali 10.0 mi PnZd 9.2 mph - N/A   pogodnie
4:51 AM 62.1 ° F 35.1 ° F 37% 29.82 cali 10.0 mi zachodni 5.8 mph - N/A   pogodnie
5:51 AM 62.1 ° F 34.0 ° F 35% 29.84 cali 10.0 mi PnZd 6.9 mph - N/A   pogodnie
6:51 AM 64.0 ° F 33.1 ° F 31% 29.86 cali 10.0 mi PdZd 6.9 mph - N/A   pogodnie
7:51 AM 68.0 ° F 30.9 ° F 25% 29.87 cali 10.0 mi WsPnWs 9.2 mph - N/A   pogodnie
8:51 AM 70.0 ° F 30.0 ° F 23% 29.87 cali 10.0 mi PnWs 10.4 mph - N/A   pogodnie
9:51 AM 73.0 ° F 30.9 ° F 21% 29.87 cali 10.0 mi północny - - N/A   pogodnie
10:51 AM 75.9 ° F 30.0 ° F 19% 29.86 cali 10.0 mi zmienny 4.6 mph - N/A   pogodnie
11:51 AM 78.1 ° F 30.0 ° F 17% 29.85 cali 10.0 mi zmienny 4.6 mph - N/A   pogodnie
12:51 PM 79.0 ° F 23.0 ° F 13% 29.83 cali 10.0 mi cisza cisza - N/A   pogodnie
1:51 PM 81.0 ° F 24.1 ° F 12% 29.81 cali 10.0 mi ZdPdZd 6.9 mph - N/A   pogodnie
2:51 PM 82.0 ° F 21.0 ° F 10% 29.79 cali 10.0 mi cisza cisza - N/A   pogodnie
3:51 PM 84.9 ° F 21.0 ° F 10% 29.78 cali 10.0 mi zmienny 3.5 mph - N/A   niewielkie zachmurzenie
4:51 PM 84.0 ° F 21.9 ° F 10% 29.77 cali 10.0 mi PdPdZd 8.1 mph - N/A   niewielkie zachmurzenie
5:51 PM 84.0 ° F 21.9 ° F 10% 29.76 cali 10.0 mi PdZd 9.2 mph - N/A   niewielkie zachmurzenie
6:51 PM 82.9 ° F 21.0 ° F 10% 29.76 cali 10.0 mi południowy 6.9 mph - N/A   niewielkie zachmurzenie
7:51 PM 82.0 ° F 19.9 ° F 10% 29.78 cali 10.0 mi ZdPdZd 6.9 mph - N/A   niewielkie zachmurzenie
8:51 PM 80.1 ° F 21.9 ° F 12% 29.79 cali 10.0 mi PdZd 4.6 mph - N/A   pogodnie
9:51 PM 80.1 ° F 21.0 ° F 11% 29.80 cali 10.0 mi cisza cisza - N/A   pogodnie
10:51 PM 80.1 ° F 21.9 ° F 12% 29.81 cali 10.0 mi cisza cisza - N/A   pogodnie
11:51 PM 75.9 ° F 25.0 ° F 15% 29.81 cali 10.0 mi wschodni 8.1 mph - N/A   pogodnie